Location: Borgo
(42.3939°N, 9.2791°E)
Time: 21:55:07
(UTC+00:00)

Meteor 1-27 - Pass Details

Date: 24 January 2021
Orbit: 837 x 893 km, 81.3° (Epoch: 03 March)

Event Time Altitude Azimuth Distance (km) Brightness Sun altitude
Rises 18:13:19 0° 355° (N) 3,428 7.3 -19.6°
Reaches altitude 10° 18:15:51 10° 1° (N) 2,481 6.5 -20.1°
Maximum altitude 18:21:16 48° 75° (ENE) 1,089 4.3 -21.1°
Enters shadow 18:23:19 33° 127° (SE) 1,373 4.9 -21.4°
